category,name,time,total,current
水力(Hydro),義興#1,00:00:00,40,28.3
水力(Hydro),義興#1,00:10:00,40,28.9
水力(Hydro),義興#1,00:20:00,40,28.3
水力(Hydro),義興#1,00:30:00,40,28.7
水力(Hydro),義興#1,00:40:00,40,28.9
水力(Hydro),義興#1,00:50:00,40,28.1
水力(Hydro),義興#1,01:00:00,40,28.6
水力(Hydro),義興#1,01:10:00,40,28.7
水力(Hydro),義興#1,01:20:00,40,28.4
水力(Hydro),義興#1,01:30:00,40,28.9
水力(Hydro),義興#1,01:40:00,40,28.9
水力(Hydro),義興#1,01:50:00,40,28.8
水力(Hydro),義興#1,02:00:00,40,28.7
水力(Hydro),義興#1,02:10:00,40,28.8
水力(Hydro),義興#1,02:20:00,40,29
水力(Hydro),義興#1,02:30:00,40,28.5
水力(Hydro),義興#1,02:40:00,40,28.5
水力(Hydro),義興#1,02:50:00,40,28.8
水力(Hydro),義興#1,03:00:00,40,28.5
水力(Hydro),義興#1,03:10:00,40,29
水力(Hydro),義興#1,03:20:00,40,28.3
水力(Hydro),義興#1,03:30:00,40,28.5
水力(Hydro),義興#1,03:40:00,40,29
水力(Hydro),義興#1,03:50:00,40,28.6
水力(Hydro),義興#1,04:00:00,40,28.7
水力(Hydro),義興#1,04:10:00,40,28.9
水力(Hydro),義興#1,04:20:00,40,28.3
水力(Hydro),義興#1,04:30:00,40,28.5
水力(Hydro),義興#1,04:40:00,40,28.1
水力(Hydro),義興#1,04:50:00,40,28.1
水力(Hydro),義興#1,05:00:00,40,28.1
水力(Hydro),義興#1,05:10:00,40,28.7
水力(Hydro),義興#1,05:20:00,40,28.5
水力(Hydro),義興#1,05:30:00,40,28.7
水力(Hydro),義興#1,05:40:00,40,28.4
水力(Hydro),義興#1,05:50:00,40,28.7
水力(Hydro),義興#1,06:00:00,40,28.5
水力(Hydro),義興#1,06:10:00,40,28.7
水力(Hydro),義興#1,06:20:00,40,28.3
水力(Hydro),義興#1,06:30:00,40,28.8
水力(Hydro),義興#1,06:40:00,40,28.4
水力(Hydro),義興#1,06:50:00,40,28.4
水力(Hydro),義興#1,07:00:00,40,28.7
水力(Hydro),義興#1,07:10:00,40,28.3
水力(Hydro),義興#1,07:20:00,40,28.7
水力(Hydro),義興#1,07:30:00,40,28.8
水力(Hydro),義興#1,07:40:00,40,27.9
水力(Hydro),義興#1,07:50:00,40,27.6
水力(Hydro),義興#1,08:00:00,40,28
水力(Hydro),義興#1,08:10:00,40,27.6
水力(Hydro),義興#1,08:20:00,40,27.7
水力(Hydro),義興#1,08:30:00,40,27.3
水力(Hydro),義興#1,08:40:00,40,27.3
水力(Hydro),義興#1,08:50:00,40,27.3
水力(Hydro),義興#1,09:00:00,40,27
水力(Hydro),義興#1,09:10:00,40,27.1
水力(Hydro),義興#1,09:20:00,40,27.7
水力(Hydro),義興#1,09:30:00,40,26.9
水力(Hydro),義興#1,09:40:00,40,27.4
水力(Hydro),義興#1,09:50:00,40,27.3
水力(Hydro),義興#1,10:00:00,40,27.3
水力(Hydro),義興#1,10:10:00,40,27.3
水力(Hydro),義興#1,10:20:00,40,27.3
水力(Hydro),義興#1,10:30:00,40,27.3
水力(Hydro),義興#1,10:40:00,40,27.5
水力(Hydro),義興#1,10:50:00,40,27
水力(Hydro),義興#1,11:00:00,40,27
水力(Hydro),義興#1,11:10:00,40,26.9
水力(Hydro),義興#1,11:20:00,40,26.8
水力(Hydro),義興#1,11:30:00,40,27.1
水力(Hydro),義興#1,11:40:00,40,27.4
水力(Hydro),義興#1,11:50:00,40,27.1
水力(Hydro),義興#1,12:00:00,40,27
水力(Hydro),義興#1,12:10:00,40,26.9
水力(Hydro),義興#1,12:20:00,40,26.8
水力(Hydro),義興#1,12:30:00,40,26.9
水力(Hydro),義興#1,12:40:00,40,26.6
水力(Hydro),義興#1,12:50:00,40,26.4
水力(Hydro),義興#1,13:00:00,40,26.4
水力(Hydro),義興#1,13:10:00,40,26.1
水力(Hydro),義興#1,13:20:00,40,26.1
水力(Hydro),義興#1,13:30:00,40,26.3
水力(Hydro),義興#1,13:40:00,40,26.7
水力(Hydro),義興#1,13:50:00,40,26.1
水力(Hydro),義興#1,14:00:00,40,26.5
水力(Hydro),義興#1,14:10:00,40,26.3
水力(Hydro),義興#1,14:20:00,40,25.8
水力(Hydro),義興#1,14:30:00,40,26.6
水力(Hydro),義興#1,14:40:00,40,26.3
水力(Hydro),義興#1,14:50:00,40,26.5
水力(Hydro),義興#1,15:00:00,40,26.4
水力(Hydro),義興#1,15:10:00,40,26.4
水力(Hydro),義興#1,15:20:00,40,26.4
水力(Hydro),義興#1,15:30:00,40,26.4
水力(Hydro),義興#1,15:40:00,40,26.4
水力(Hydro),義興#1,15:50:00,40,26.4
水力(Hydro),義興#1,16:00:00,40,26.6
水力(Hydro),義興#1,16:10:00,40,26.5
水力(Hydro),義興#1,16:20:00,40,27
水力(Hydro),義興#1,16:30:00,40,26.4
水力(Hydro),義興#1,16:40:00,40,26.5
水力(Hydro),義興#1,16:50:00,40,26.4
水力(Hydro),義興#1,17:00:00,40,26.3
水力(Hydro),義興#1,17:10:00,40,26.4
水力(Hydro),義興#1,17:20:00,40,26.1
水力(Hydro),義興#1,17:30:00,40,26.4
水力(Hydro),義興#1,17:40:00,40,26.4
水力(Hydro),義興#1,17:50:00,40,26.4
水力(Hydro),義興#1,18:00:00,40,26.8
水力(Hydro),義興#1,18:10:00,40,26
水力(Hydro),義興#1,18:20:00,40,26.1
水力(Hydro),義興#1,18:30:00,40,26.1
水力(Hydro),義興#1,18:40:00,40,26.2
水力(Hydro),義興#1,18:50:00,40,26.2
水力(Hydro),義興#1,19:00:00,40,26.4
水力(Hydro),義興#1,19:10:00,40,26
水力(Hydro),義興#1,19:20:00,40,26.5
水力(Hydro),義興#1,19:30:00,40,26.7
水力(Hydro),義興#1,19:40:00,40,26.5
水力(Hydro),義興#1,19:50:00,40,26
水力(Hydro),義興#1,20:00:00,40,25.6
水力(Hydro),義興#1,20:10:00,40,25.5
水力(Hydro),義興#1,20:20:00,40,25.9
水力(Hydro),義興#1,20:30:00,40,25.9
水力(Hydro),義興#1,20:40:00,40,26
水力(Hydro),義興#1,20:50:00,40,26
水力(Hydro),義興#1,21:00:00,40,25.5
水力(Hydro),義興#1,21:10:00,40,25.7
水力(Hydro),義興#1,21:20:00,40,25.9
水力(Hydro),義興#1,21:30:00,40,26.3
水力(Hydro),義興#1,21:40:00,40,26.4
水力(Hydro),義興#1,21:50:00,40,26.5
水力(Hydro),義興#1,22:00:00,40,26.3
水力(Hydro),義興#1,22:10:00,40,26.7
水力(Hydro),義興#1,22:20:00,40,26.6
水力(Hydro),義興#1,22:30:00,40,26.7
水力(Hydro),義興#1,22:40:00,40,26.6
水力(Hydro),義興#1,22:50:00,40,26.4
水力(Hydro),義興#1,23:00:00,40,26.6
水力(Hydro),義興#1,23:10:00,40,26.6
水力(Hydro),義興#1,23:20:00,40,26
水力(Hydro),義興#1,23:30:00,40,26.5
水力(Hydro),義興#1,23:40:00,40,26.9
水力(Hydro),義興#1,23:50:00,40,26.5
